Voltar ao catálogo

COSMOS 1317 DEB

LostHEO
NORAD 35510·DEBRIS·🇷🇺 Russia

Lançado Oct 31, 1981 de Plesetsk Cosmodrome

Loading…

Próximas Passagens (próximas 24 horas)

TLE

ObsoletoSource: Space-Track

Época: Apr 12, 2009, 11:53 UTC

1 35510U 81108K   09102.49526896 -.00000593  00000-0  10000-3 0  9995
2 35510  70.8103 357.5432 5424658 155.4697 244.8584  2.00125162  3282

Acompanhe COSMOS 1317 DEB em tempo real com AllMySat

Download on the App Store